Location: Unspecified
(29.9680°N, 0.0000°E)
Time: 04:01:02
(UTC+00:00)

Explorer 7 - Pass Details

Date: 04 July 2019
Orbit: 485 x 680 km, 50.3° (Epoch: 21 July)

Event Time Altitude Azimuth Distance (km) Brightness Sun altitude
Rises 11:23:33 0° 311° (NW) 2,881 10.4 78.4°
Reaches altitude 10° 11:25:49 10° 308° (NW) 2,003 9.7 78.8°
Maximum altitude 11:30:24 65° 227° (SW) 713 8.7 79.6°
Drops below altitude 10° 11:35:11 10° 146° (SE) 2,084 10.1 80.4°
Sets 11:37:35 0° 143° (SE) 3,007 10.7 80.7°
